This is the latest recevied weather packets stored in our database for station/object KU9TRY. If no packets are shown the sender has not sent any weather packets the latest 10 day(s).
| Time | Temp. | Humidity | Pressure | Rain* | Wind** | Luminosity | Snow |
|---|---|---|---|---|---|---|---|
| 1777569963 | 17.22° C | 39% | 1015.9 hPa | 0 mm | - | 937 W/m² | - |
| 1777569659 | 17.78° C | 40% | 1016.2 hPa | 0 mm | - | 993 W/m² | - |
| 1777569354 | 17.22° C | 45% | 1016.2 hPa | 0 mm | - | 998 W/m² | - |
| 1777569051 | 17.22° C | 43% | 1016.2 hPa | 0 mm | - | 949 W/m² | - |
| 1777568748 | 17.22° C | 42% | 1016.4 hPa | 0 mm | - | 976 W/m² | - |
| 1777568446 | 17.22° C | 42% | 1016.3 hPa | 0 mm | - | 976 W/m² | - |
| 1777568142 | 16.67° C | 41% | 1016.2 hPa | 0 mm | - | 984 W/m² | - |
| 1777567839 | 17.22° C | 40% | 1016.5 hPa | 0 mm | - | 986 W/m² | - |
| 1777567535 | 17.22° C | 42% | 1016.6 hPa | 0 mm | - | 977 W/m² | - |
| 1777567232 | 16.67° C | 42% | 1016.5 hPa | 0 mm | - | 986 W/m² | - |
| 1777566931 | 16.67° C | 38% | 1016.6 hPa | 0 mm | - | 979 W/m² | - |
| 1777566628 | 16.67° C | 39% | 1016.5 hPa | 0 mm | - | 970 W/m² | - |
| 1777566326 | 16.67° C | 39% | 1016.5 hPa | 0 mm | - | 968 W/m² | - |
| 1777566023 | 16.67° C | 39% | 1016.7 hPa | 0 mm | - | 961 W/m² | - |
| 1777565719 | 16.67° C | 39% | 1016.4 hPa | 0 mm | - | 954 W/m² | - |
| 1777565415 | 16.67° C | 41% | 1016.8 hPa | 0 mm | - | 943 W/m² | - |
| 1777565111 | 16.67° C | 43% | 1016.6 hPa | 0 mm | - | 944 W/m² | - |
| 1777564808 | 16.67° C | 43% | 1016.8 hPa | 0 mm | - | 904 W/m² | - |
| 1777564503 | 16.67° C | 45% | 1016.7 hPa | 0 mm | - | 829 W/m² | - |
| 1777564198 | 16.67° C | 43% | 1016.7 hPa | 0 mm | - | 914 W/m² | - |
| 1777563894 | 16.67° C | 41% | 1016.9 hPa | 0 mm | - | 911 W/m² | - |
| 1777563591 | 16.67° C | 41% | 1016.8 hPa | 0 mm | - | 893 W/m² | - |
| 1777563290 | 16.11° C | 43% | 1016.8 hPa | 0 mm | - | 879 W/m² | - |
| 1777562987 | 16.11° C | 40% | 1016.9 hPa | 0 mm | - | 867 W/m² | - |
| 1777562683 | 16.11° C | 44% | 1017 hPa | 0 mm | - | 857 W/m² | - |
* Rain latest hour (hover to see other rain measurements)
** Current wind speed in m/s (hover to see current wind gust speed)